リニア彗星

197P/LINEAR (2008)

English version
Home page
Total 6,336 html files since Dec. 4, 1995
Updated on July 20, 2008

---------------------------------------------------------------------

・ プロフィール

符号 197P/2008 E2
検出日 2008年3月3日
検出光度 18.7等
検出者 R. E. Hill (Catalina)

・ 写真集

・ 軌道要素

                    Epoch = 2008 May  14.0 TT
     T = 2008 May  19.0176 TT         Peri. = 188.7935
     e = 0.630017                     Node  =  66.3890  2000.0
     q = 1.060435 AU                  Incl. =  25.5549
       a =  2.866176 AU    n = 0.2031187    P =   4.85 years

・ 星図

・ 光度変化

        m1 = 17.5 + 5 logΔ + 10.0 log r

---------------------------------------------------------------------

軌道要素は、IAUC 8924に掲載されたものです。
星図はステラナビゲータ Ver.8 (アストロアーツ) で作成したものです。
光度グラフはComet for Windowsで作成したものです。

---------------------------------------------------------------------

Copyright(C) 1995-2008 Seiichi Yoshida (comet@aerith.net). All rights reserved.